| time (UTC) | temp F | wind direction | speed knots | gust knots | rain 1hr in | rain 24hr in | rain mn in | humidity % | barometer mb |
| 20260505140403 | 65 | 44 | 0.0 | 1.7 | 0.00 | 0.00 | 0.00 | 49 | 1015.6 |
| 20260505124817 | 57 | 156 | 0.9 | 1.7 | 0.00 | 0.00 | 0.00 | 62 | 1015.0 |
| 20260505124314 | 56 | 177 | 0.9 | 2.6 | 0.00 | 0.00 | 0.00 | 62 | 1015.0 |
| 20260505123810 | 57 | 153 | 1.7 | 1.7 | 0.00 | 0.00 | 0.00 | 62 | 1014.8 |
| 20260505123307 | 56 | 165 | 2.6 | 2.6 | 0.00 | 0.00 | 0.00 | 64 | 1014.9 |
| 20260505122802 | 55 | 134 | 1.7 | 3.5 | 0.00 | 0.00 | 0.00 | 65 | 1014.8 |
| 20260505122300 | 55 | 322 | 0.0 | 0.9 | 0.00 | 0.00 | 0.00 | 64 | 1014.8 |
| 20260505121756 | 55 | 100 | 0.0 | 0.9 | 0.00 | 0.00 | 0.00 | 64 | 1014.7 |
| 20260505121253 | 55 | 118 | 0.0 | 1.7 | 0.00 | 0.00 | 0.00 | 63 | 1014.8 |
| 20260505120750 | 56 | 254 | 0.9 | 3.5 | 0.00 | 0.00 | 0.00 | 62 | 1014.8 |
| 20260505120246 | 57 | 88 | 2.6 | 4.3 | 0.00 | 0.00 | 0.00 | 61 | 1014.8 |
| 20260505115744 | 57 | 92 | 1.7 | 4.3 | 0.00 | 0.00 | 0.00 | 61 | 1014.8 |
| 20260505115242 | 57 | 87 | 2.6 | 4.3 | 0.00 | 0.00 | 0.00 | 61 | 1014.8 |
| 20260505114740 | 57 | 98 | 2.6 | 3.5 | 0.00 | 0.00 | 0.00 | 61 | 1015.0 |
| 20260505114236 | 57 | 143 | 0.0 | 2.6 | 0.00 | 0.00 | 0.00 | 62 | 1015.0 |
| 20260505113733 | 57 | 53 | 1.7 | 2.6 | 0.00 | 0.00 | 0.00 | 61 | 1015.2 |
| 20260505113230 | 57 | 79 | 0.9 | 2.6 | 0.00 | 0.00 | 0.00 | 61 | 1015.1 |
| 20260505112726 | 59 | 148 | 0.0 | 1.7 | 0.00 | 0.00 | 0.00 | 60 | 1015.5 |
| 20260505112224 | 59 | 89 | 0.0 | 1.7 | 0.00 | 0.00 | 0.00 | 59 | 1015.1 |
| 20260505111723 | 59 | 115 | 0.9 | 1.7 | 0.00 | 0.00 | 0.00 | 59 | 1015.1 |
| 20260505111219 | 59 | 191 | 1.7 | 2.6 | 0.00 | 0.00 | 0.00 | 58 | 1015.3 |
| 20260505110715 | 59 | 237 | 1.7 | 2.6 | 0.00 | 0.00 | 0.00 | 58 | 1015.2 |
| 20260505110213 | 59 | 230 | 1.7 | 4.3 | 0.00 | 0.00 | 0.00 | 57 | 1015.4 |
| 20260505102148 | 59 | 93 | 1.7 | 2.6 | 0.00 | 0.00 | 0.00 | 57 | 1015.3 |
| 20260505101647 | 60 | 99 | 2.6 | 5.2 | 0.00 | 0.00 | 0.00 | 56 | 1015.2 |
| 20260505101143 | 60 | 87 | 5.2 | 5.2 | 0.00 | 0.00 | 0.00 | 56 | 1015.3 |
| 20260505100639 | 59 | 100 | 2.6 | 4.3 | 0.00 | 0.00 | 0.00 | 56 | 1015.2 |
| 20260505100136 | 59 | 93 | 1.7 | 3.5 | 0.00 | 0.00 | 0.00 | 57 | 1015.5 |
| 20260505095632 | 60 | 89 | 4.3 | 5.2 | 0.00 | 0.00 | 0.00 | 56 | 1015.2 |
| 20260505095129 | 60 | 92 | 5.2 | 5.2 | 0.00 | 0.00 | 0.00 | 55 | 1015.4 |
| 20260505094625 | 60 | 52 | 1.7 | 2.6 | 0.00 | 0.00 | 0.00 | 54 | 1015.4 |
| 20260505094122 | 60 | 231 | 4.3 | 4.3 | 0.00 | 0.00 | 0.00 | 53 | 1015.3 |
| 20260505093618 | 60 | 217 | 1.7 | 3.5 | 0.00 | 0.00 | 0.00 | 54 | 1015.3 |
| 20260505093115 | 60 | 252 | 2.6 | 2.6 | 0.00 | 0.00 | 0.00 | 54 | 1015.4 |
| 20260505092612 | 60 | 271 | 1.7 | 4.3 | 0.00 | 0.00 | 0.00 | 53 | 1015.2 |
| 20260505092111 | 61 | 348 | 2.6 | 5.2 | 0.00 | 0.00 | 0.00 | 52 | 1015.4 |
| 20260505091607 | 61 | 314 | 1.7 | 3.5 | 0.00 | 0.00 | 0.00 | 52 | 1015.4 |
| 20260505091106 | 61 | 318 | 5.2 | 5.2 | 0.00 | 0.00 | 0.00 | 52 | 1015.8 |
| 20260505090603 | 61 | 327 | 2.6 | 4.3 | 0.00 | 0.00 | 0.00 | 53 | 1015.8 |
| 20260505090101 | 61 | 256 | 0.9 | 5.2 | 0.00 | 0.00 | 0.00 | 52 | 1015.9 |
| 20260505085558 | 61 | 275 | 2.6 | 7.0 | 0.00 | 0.00 | 0.00 | 52 | 1015.8 |
| 20260505085057 | 60 | 236 | 3.5 | 3.5 | 0.00 | 0.00 | 0.00 | 53 | 1016.1 |
| 20260505084554 | 60 | 356 | 1.7 | 3.5 | 0.00 | 0.00 | 0.00 | 53 | 1016.0 |
| 20260505084052 | 61 | 275 | 0.0 | 2.6 | 0.00 | 0.00 | 0.00 | 52 | 1016.1 |
| 20260505083549 | 61 | 328 | 3.5 | 7.0 | 0.00 | 0.00 | 0.00 | 51 | 1016.1 |
| 20260505083046 | 61 | 311 | 2.6 | 5.2 | 0.00 | 0.00 | 0.00 | 51 | 1016.2 |
| 20260505082541 | 62 | 328 | 5.2 | 7.8 | 0.00 | 0.00 | 0.00 | 51 | 1016.3 |
| 20260505082039 | 62 | 281 | 4.3 | 13.9 | 0.00 | 0.00 | 0.00 | 50 | 1016.5 |
| 20260505081535 | 62 | 317 | 1.7 | 7.8 | 0.00 | 0.00 | 0.00 | 50 | 1016.5 |
| 20260505081032 | 61 | 10 | 1.7 | 4.3 | 0.00 | 0.00 | 0.00 | 51 | 1016.6 |
| 20260505080528 | 61 | 248 | 3.5 | 8.7 | 0.00 | 0.00 | 0.00 | 52 | 1016.5 |
| 20260505080025 | 61 | 340 | 4.3 | 5.2 | 0.00 | 0.00 | 0.00 | 52 | 1016.5 |
| 20260505075521 | 61 | 276 | 2.6 | 5.2 | 0.00 | 0.00 | 0.00 | 51 | 1016.6 |
| 20260505075018 | 61 | 295 | 2.6 | 13.9 | 0.00 | 0.00 | 0.00 | 52 | 1016.7 |
| 20260505074515 | 62 | 336 | 0.9 | 15.6 | 0.00 | 0.00 | 0.00 | 52 | 1016.7 |
| 20260505074012 | 62 | 258 | 2.6 | 7.0 | 0.00 | 0.00 | 0.00 | 53 | 1016.6 |
| 20260505073510 | 62 | 256 | 3.5 | 5.2 | 0.00 | 0.00 | 0.00 | 53 | 1016.6 |
| 20260505073008 | 62 | 332 | 2.6 | 3.5 | 0.00 | 0.00 | 0.00 | 53 | 1016.7 |
| 20260505072503 | 62 | 265 | 5.2 | 10.4 | 0.00 | 0.00 | 0.00 | 52 | 1016.6 |
| 20260505071959 | 62 | 248 | 3.5 | 4.3 | 0.00 | 0.00 | 0.00 | 52 | 1016.6 |
| 20260505071455 | 62 | 225 | 1.7 | 2.6 | 0.00 | 0.00 | 0.00 | 52 | 1016.7 |
| 20260505070953 | 62 | 354 | 3.5 | 4.3 | 0.00 | 0.00 | 0.00 | 52 | 1016.6 |
| 20260505070450 | 62 | 329 | 5.2 | 5.2 | 0.00 | 0.00 | 0.00 | 52 | 1016.6 |
| 20260505065946 | 62 | 273 | 1.7 | 5.2 | 0.00 | 0.00 | 0.00 | 52 | 1016.3 |
| 20260505065442 | 62 | 322 | 3.5 | 5.2 | 0.00 | 0.00 | 0.00 | 52 | 1016.6 |
| 20260505064940 | 62 | 202 | 1.7 | 3.5 | 0.00 | 0.00 | 0.00 | 53 | 1016.7 |
| 20260505064436 | 62 | 244 | 1.7 | 6.1 | 0.00 | 0.00 | 0.00 | 52 | 1016.8 |
| 20260505063934 | 62 | 240 | 9.6 | 13.0 | 0.00 | 0.00 | 0.00 | 52 | 1016.5 |
| 20260505063431 | 62 | 274 | 3.5 | 9.6 | 0.00 | 0.00 | 0.00 | 52 | 1016.5 |
| 20260505062927 | 62 | 263 | 5.2 | 7.0 | 0.00 | 0.00 | 0.00 | 52 | 1016.8 |
| 20260505062425 | 62 | 262 | 3.5 | 9.6 | 0.00 | 0.00 | 0.00 | 52 | 1016.8 |
| 20260505061921 | 62 | 232 | 7.8 | 9.6 | 0.00 | 0.00 | 0.00 | 52 | 1016.9 |
| 20260505061419 | 61 | 261 | 1.7 | 4.3 | 0.00 | 0.00 | 0.00 | 53 | 1016.8 |
| 20260505060917 | 61 | 232 | 6.1 | 8.7 | 0.00 | 0.00 | 0.00 | 53 | 1017.0 |
| 20260505060413 | 62 | 228 | 2.6 | 5.2 | 0.00 | 0.00 | 0.00 | 51 | 1016.8 |
| 20260505055910 | 62 | 338 | 8.7 | 10.4 | 0.00 | 0.00 | 0.00 | 50 | 1016.7 |
| 20260505055406 | 62 | 278 | 2.6 | 12.2 | 0.00 | 0.00 | 0.00 | 50 | 1016.8 |
| 20260505054903 | 62 | 256 | 7.8 | 12.2 | 0.00 | 0.00 | 0.00 | 51 | 1016.7 |
| 20260505054400 | 62 | 268 | 4.3 | 9.6 | 0.00 | 0.00 | 0.00 | 51 | 1017.0 |
| 20260505053858 | 62 | 321 | 4.3 | 10.4 | 0.00 | 0.00 | 0.00 | 50 | 1017.2 |
| 20260505053355 | 62 | 250 | 12.2 | 16.5 | 0.00 | 0.00 | 0.00 | 50 | 1017.3 |
| 20260505052852 | 63 | 276 | 6.1 | 20.9 | 0.00 | 0.00 | 0.00 | 49 | 1017.1 |
| 20260505052348 | 63 | 228 | 13.0 | 19.1 | 0.00 | 0.00 | 0.00 | 48 | 1017.0 |
| 20260505051846 | 63 | 231 | 11.3 | 17.4 | 0.00 | 0.00 | 0.00 | 48 | 1017.0 |
| 20260505051343 | 63 | 252 | 6.1 | 7.0 | 0.00 | 0.00 | 0.00 | 47 | 1017.1 |
| 20260505050842 | 63 | 240 | 7.8 | 13.9 | 0.00 | 0.00 | 0.00 | 46 | 1017.0 |
| 20260505050340 | 63 | 241 | 9.6 | 11.3 | 0.00 | 0.00 | 0.00 | 46 | 1016.8 |
| 20260505041306 | 63 | 249 | 7.8 | 13.0 | 0.00 | 0.00 | 0.00 | 47 | 1017.3 |
| 20260505040804 | 63 | 297 | 5.2 | 12.2 | 0.00 | 0.00 | 0.00 | 48 | 1017.1 |
| 20260505040301 | 64 | 250 | 7.8 | 13.9 | 0.00 | 0.00 | 0.00 | 47 | 1017.2 |
| 20260505035758 | 64 | 301 | 6.1 | 13.0 | 0.00 | 0.00 | 0.00 | 48 | 1017.0 |
| 20260505035253 | 64 | 301 | 4.3 | 15.6 | 0.00 | 0.00 | 0.00 | 47 | 1017.1 |
| 20260505034751 | 64 | 297 | 4.3 | 15.6 | 0.00 | 0.00 | 0.00 | 46 | 1017.1 |
| 20260505034247 | 64 | 313 | 7.0 | 19.1 | 0.00 | 0.00 | 0.00 | 46 | 1016.9 |
| 20260505033744 | 64 | 300 | 5.2 | 13.9 | 0.00 | 0.00 | 0.00 | 47 | 1016.8 |
| 20260505033242 | 64 | 249 | 6.1 | 13.9 | 0.00 | 0.00 | 0.00 | 46 | 1016.7 |
| 20260505032740 | 64 | 337 | 7.0 | 11.3 | 0.00 | 0.00 | 0.00 | 46 | 1016.9 |
| 20260505032235 | 64 | 104 | 0.0 | 8.7 | 0.00 | 0.00 | 0.00 | 45 | 1016.8 |
| 20260505031733 | 64 | 351 | 3.5 | 10.4 | 0.00 | 0.00 | 0.00 | 45 | 1016.6 |
| 20260505031229 | 64 | 240 | 3.5 | 7.8 | 0.00 | 0.00 | 0.00 | 46 | 1016.3 |
| 20260505030726 | 64 | 320 | 1.7 | 7.8 | 0.00 | 0.00 | 0.00 | 45 | 1016.5 |
| 20260505030222 | 64 | 281 | 4.3 | 10.4 | 0.00 | 0.00 | 0.00 | 45 | 1016.5 |
| 20260505025718 | 65 | 310 | 5.2 | 12.2 | 0.00 | 0.00 | 0.00 | 45 | 1016.2 |
| 20260505025217 | 65 | 319 | 1.7 | 8.7 | 0.00 | 0.00 | 0.00 | 44 | 1016.5 |
| 20260505024714 | 65 | 0 | 3.5 | 9.6 | 0.00 | 0.00 | 0.00 | 44 | 1016.1 |
| 20260505024211 | 65 | 321 | 8.7 | 12.2 | 0.00 | 0.00 | 0.00 | 44 | 1016.0 |
| 20260505023708 | 65 | 338 | 4.3 | 9.6 | 0.00 | 0.00 | 0.00 | 44 | 1016.0 |
| 20260505023206 | 65 | 255 | 9.6 | 16.5 | 0.00 | 0.00 | 0.00 | 43 | 1016.0 |
| 20260505022703 | 65 | 302 | 7.0 | 12.2 | 0.00 | 0.00 | 0.00 | 43 | 1016.2 |
| 20260505022200 | 65 | 256 | 2.6 | 17.4 | 0.00 | 0.00 | 0.00 | 42 | 1015.9 |
| 20260505021657 | 66 | 239 | 6.1 | 16.5 | 0.00 | 0.00 | 0.00 | 43 | 1016.0 |
| 20260505021153 | 66 | 325 | 7.0 | 11.3 | 0.00 | 0.00 | 0.00 | 43 | 1015.8 |
| 20260505020649 | 66 | 328 | 11.3 | 20.9 | 0.00 | 0.00 | 0.00 | 43 | 1015.8 |
| 20260505020145 | 66 | 342 | 9.6 | 15.6 | 0.00 | 0.00 | 0.00 | 43 | 1015.7 |
| 20260505015643 | 66 | 315 | 9.6 | 13.0 | 0.00 | 0.00 | 0.00 | 42 | 1015.7 |
| 20260505015139 | 66 | 254 | 3.5 | 11.3 | 0.00 | 0.00 | 0.00 | 42 | 1015.8 |
| 20260505014636 | 67 | 340 | 4.3 | 5.2 | 0.00 | 0.00 | 0.00 | 41 | 1016.0 |
| 20260505014133 | 67 | 201 | 2.6 | 23.5 | 0.00 | 0.00 | 0.00 | 41 | 1016.3 |
| 20260505013630 | 67 | 295 | 7.8 | 9.6 | 0.00 | 0.00 | 0.00 | 42 | 1015.9 |
| 20260505013127 | 67 | 337 | 12.2 | 13.0 | 0.00 | 0.00 | 0.00 | 41 | 1015.8 |
| 20260505012625 | 68 | 320 | 9.6 | 13.0 | 0.00 | 0.00 | 0.00 | 40 | 1015.8 |
| 20260505012122 | 68 | 10 | 1.7 | 4.3 | 0.00 | 0.00 | 0.00 | 41 | 1015.8 |
| 20260505011617 | 68 | 254 | 7.0 | 15.6 | 0.00 | 0.00 | 0.00 | 40 | 1016.0 |
| 20260505011115 | 69 | 351 | 6.1 | 8.7 | 0.00 | 0.00 | 0.00 | 38 | 1015.7 |
| 20260505010610 | 69 | 10 | 4.3 | 15.6 | 0.00 | 0.00 | 0.00 | 39 | 1015.9 |
| 20260505010107 | 70 | 338 | 6.1 | 12.2 | 0.00 | 0.00 | 0.00 | 39 | 1015.8 |
| 20260505005603 | 69 | 236 | 5.2 | 9.6 | 0.00 | 0.00 | 0.00 | 39 | 1016.0 |
| 20260505005101 | 70 | 278 | 5.2 | 13.0 | 0.00 | 0.00 | 0.00 | 38 | 1016.0 |
| 20260505004557 | 70 | 319 | 7.8 | 11.3 | 0.00 | 0.00 | 0.00 | 38 | 1015.8 |
| 20260505004054 | 71 | 219 | 5.2 | 7.0 | 0.00 | 0.00 | 0.00 | 36 | 1016.0 |
| 20260505003552 | 70 | 232 | 8.7 | 16.5 | 0.00 | 0.00 | 0.00 | 37 | 1015.8 |
| 20260505003049 | 71 | 292 | 3.5 | 7.8 | 0.00 | 0.00 | 0.00 | 35 | 1015.8 |
| 20260505002543 | 71 | 321 | 6.1 | 14.8 | 0.00 | 0.00 | 0.00 | 35 | 1015.9 |
| 20260505002043 | 71 | 304 | 7.0 | 15.6 | 0.00 | 0.00 | 0.00 | 35 | 1015.8 |
| 20260505001540 | 71 | 333 | 5.2 | 6.1 | 0.00 | 0.00 | 0.00 | 35 | 1015.7 |
| 20260505001037 | 71 | 298 | 10.4 | 17.4 | 0.00 | 0.00 | 0.00 | 35 | 1015.6 |
| 20260505000534 | 71 | 238 | 1.7 | 13.9 | 0.00 | 0.00 | 0.00 | 34 | 1015.7 |
| 20260505000032 | 72 | 276 | 6.1 | 11.3 | 0.00 | 0.00 | 0.00 | 35 | 1015.6 |
| 20260504235528 | 71 | 273 | 3.5 | 11.3 | 0.00 | 0.00 | 0.00 | 33 | 1015.4 |
| 20260504235025 | 71 | 263 | 5.2 | 18.2 | 0.00 | 0.00 | 0.00 | 34 | 1015.5 |
| 20260504234522 | 72 | 251 | 10.4 | 17.4 | 0.00 | 0.00 | 0.00 | 34 | 1015.4 |
| 20260504234019 | 72 | 247 | 10.4 | 14.8 | 0.00 | 0.00 | 0.00 | 33 | 1015.4 |
| 20260504233514 | 71 | 260 | 7.8 | 12.2 | 0.00 | 0.00 | 0.00 | 34 | 1015.1 |
| 20260504233011 | 73 | 249 | 5.2 | 6.1 | 0.00 | 0.00 | 0.00 | 33 | 1015.2 |
| 20260504232508 | 73 | 237 | 14.8 | 20.0 | 0.00 | 0.00 | 0.00 | 33 | 1015.4 |
| 20260504232006 | 74 | 312 | 5.2 | 12.2 | 0.00 | 0.00 | 0.00 | 32 | 1015.2 |
| 20260504231502 | 73 | 295 | 8.7 | 15.6 | 0.00 | 0.00 | 0.00 | 33 | 1015.4 |
| 20260504230958 | 73 | 259 | 9.6 | 14.8 | 0.00 | 0.00 | 0.00 | 32 | 1015.2 |
| 20260504230455 | 74 | 244 | 13.0 | 18.2 | 0.00 | 0.00 | 0.00 | 32 | 1015.3 |
| 20260504225954 | 73 | 268 | 6.1 | 15.6 | 0.00 | 0.00 | 0.00 | 33 | 1015.4 |
| 20260504225450 | 73 | 250 | 7.8 | 19.1 | 0.00 | 0.00 | 0.00 | 33 | 1015.3 |
| 20260504224947 | 73 | 277 | 5.2 | 16.5 | 0.00 | 0.00 | 0.00 | 33 | 1015.3 |
| 20260504224444 | 73 | 307 | 8.7 | 15.6 | 0.00 | 0.00 | 0.00 | 33 | 1015.1 |
| 20260504223941 | 74 | 336 | 6.1 | 9.6 | 0.00 | 0.00 | 0.00 | 32 | 1015.2 |
| 20260504223437 | 74 | 240 | 13.0 | 15.6 | 0.00 | 0.00 | 0.00 | 31 | 1015.5 |
| 20260504222933 | 73 | 328 | 7.8 | 14.8 | 0.00 | 0.00 | 0.00 | 32 | 1015.3 |
| 20260504222431 | 73 | 303 | 5.2 | 20.0 | 0.00 | 0.00 | 0.00 | 32 | 1015.6 |
| 20260504221928 | 73 | 278 | 11.3 | 19.1 | 0.00 | 0.00 | 0.00 | 33 | 1015.6 |
| 20260504221425 | 74 | 273 | 5.2 | 16.5 | 0.00 | 0.00 | 0.00 | 31 | 1015.5 |
| 20260504220922 | 74 | 294 | 4.3 | 12.2 | 0.00 | 0.00 | 0.00 | 32 | 1015.6 |
| 20260504220419 | 75 | 247 | 8.7 | 17.4 | 0.00 | 0.00 | 0.00 | 31 | 1015.3 |
| 20260504215916 | 76 | 239 | 11.3 | 13.0 | 0.00 | 0.00 | 0.00 | 31 | 1015.6 |
| 20260504215413 | 74 | 291 | 5.2 | 13.0 | 0.00 | 0.00 | 0.00 | 32 | 1015.5 |
| 20260504214909 | 74 | 315 | 7.0 | 13.9 | 0.00 | 0.00 | 0.00 | 31 | 1015.6 |
| 20260504214405 | 74 | 252 | 7.8 | 11.3 | 0.00 | 0.00 | 0.00 | 31 | 1015.6 |
| 20260504213902 | 76 | 291 | 5.2 | 13.9 | 0.00 | 0.00 | 0.00 | 30 | 1015.8 |
| 20260504213358 | 75 | 327 | 4.3 | 5.2 | 0.00 | 0.00 | 0.00 | 31 | 1015.9 |
| 20260504212855 | 73 | 252 | 5.2 | 12.2 | 0.00 | 0.00 | 0.00 | 32 | 1015.9 |
| 20260504212351 | 75 | 345 | 6.1 | 12.2 | 0.00 | 0.00 | 0.00 | 31 | 1015.8 |
| 20260504211849 | 73 | 312 | 7.0 | 15.6 | 0.00 | 0.00 | 0.00 | 32 | 1016.0 |
| 20260504211345 | 74 | 292 | 1.7 | 5.2 | 0.00 | 0.00 | 0.00 | 31 | 1015.9 |
| 20260504210843 | 73 | 1 | 4.3 | 8.7 | 0.00 | 0.00 | 0.00 | 33 | 1015.9 |
| 20260504210340 | 74 | 289 | 5.2 | 11.3 | 0.00 | 0.00 | 0.00 | 33 | 1016.0 |
| 20260504205837 | 73 | 253 | 5.2 | 9.6 | 0.00 | 0.00 | 0.00 | 34 | 1016.3 |
| 20260504205335 | 73 | 303 | 8.7 | 13.9 | 0.00 | 0.00 | 0.00 | 34 | 1016.0 |
| 20260504204832 | 73 | 311 | 3.5 | 10.4 | 0.00 | 0.00 | 0.00 | 33 | 1016.2 |
| 20260504204331 | 75 | 281 | 7.0 | 8.7 | 0.00 | 0.00 | 0.00 | 33 | 1016.3 |
| 20260504203830 | 75 | 280 | 1.7 | 4.3 | 0.00 | 0.00 | 0.00 | 32 | 1016.3 |
| 20260504203326 | 73 | 287 | 3.5 | 9.6 | 0.00 | 0.00 | 0.00 | 34 | 1016.2 |
| 20260504202822 | 74 | 336 | 6.1 | 8.7 | 0.00 | 0.00 | 0.00 | 34 | 1016.5 |
| 20260504202320 | 74 | 87 | 0.9 | 4.3 | 0.00 | 0.00 | 0.00 | 32 | 1016.3 |
| 20260504201816 | 74 | 180 | 1.7 | 3.5 | 0.00 | 0.00 | 0.00 | 33 | 1016.7 |
| 20260504201313 | 73 | 97 | 3.5 | 5.2 | 0.00 | 0.00 | 0.00 | 34 | 1016.7 |
| 20260504200811 | 73 | 5 | 4.3 | 8.7 | 0.00 | 0.00 | 0.00 | 34 | 1016.6 |
| 20260504200307 | 71 | 295 | 5.2 | 10.4 | 0.00 | 0.00 | 0.00 | 35 | 1016.7 |
| 20260504195803 | 71 | 232 | 2.6 | 3.5 | 0.00 | 0.00 | 0.00 | 36 | 1017.1 |
| 20260504195259 | 71 | 348 | 2.6 | 7.8 | 0.00 | 0.00 | 0.00 | 36 | 1016.9 |
| 20260504194756 | 70 | 317 | 8.7 | 13.9 | 0.00 | 0.00 | 0.00 | 37 | 1016.9 |
| 20260504194253 | 69 | 275 | 6.1 | 12.2 | 0.00 | 0.00 | 0.00 | 38 | 1017.2 |
| 20260504193749 | 70 | 305 | 13.0 | 18.2 | 0.00 | 0.00 | 0.00 | 37 | 1017.1 |
| 20260504193246 | 71 | 314 | 6.1 | 7.8 | 0.00 | 0.00 | 0.00 | 37 | 1017.3 |
| 20260504192744 | 72 | 263 | 1.7 | 4.3 | 0.00 | 0.00 | 0.00 | 36 | 1017.3 |
| 20260504192242 | 71 | 335 | 3.5 | 4.3 | 0.00 | 0.00 | 0.00 | 35 | 1017.5 |
| 20260504191741 | 70 | 333 | 7.0 | 10.4 | 0.00 | 0.00 | 0.00 | 37 | 1017.7 |
| 20260504191237 | 70 | 4 | 2.6 | 7.8 | 0.00 | 0.00 | 0.00 | 37 | 1017.6 |
| 20260504190732 | 69 | 48 | 2.6 | 9.6 | 0.00 | 0.00 | 0.00 | 38 | 1018.0 |
| 20260504190229 | 70 | 302 | 5.2 | 7.0 | 0.00 | 0.00 | 0.00 | 36 | 1017.7 |
| 20260504185726 | 70 | 334 | 1.7 | 5.2 | 0.00 | 0.00 | 0.00 | 36 | 1017.9 |
| 20260504185223 | 69 | 290 | 8.7 | 12.2 | 0.00 | 0.00 | 0.00 | 37 | 1017.8 |
| 20260504184719 | 69 | 357 | 1.7 | 7.0 | 0.00 | 0.00 | 0.00 | 38 | 1017.9 |
| 20260504184215 | 69 | 234 | 7.8 | 11.3 | 0.00 | 0.00 | 0.00 | 38 | 1017.8 |
| 20260504183711 | 70 | 235 | 12.2 | 16.5 | 0.00 | 0.00 | 0.00 | 36 | 1017.8 |
| 20260504183208 | 70 | 114 | 4.3 | 5.2 | 0.00 | 0.00 | 0.00 | 36 | 1017.9 |
| 20260504182706 | 69 | 324 | 5.2 | 6.1 | 0.00 | 0.00 | 0.00 | 36 | 1017.8 |
| 20260504182203 | 69 | 58 | 2.6 | 5.2 | 0.00 | 0.00 | 0.00 | 36 | 1017.9 |
| 20260504181700 | 70 | 107 | 1.7 | 4.3 | 0.00 | 0.00 | 0.00 | 35 | 1018.0 |
| 20260504181158 | 70 | 43 | 0.9 | 3.5 | 0.00 | 0.00 | 0.00 | 35 | 1018.0 |
| 20260504180657 | 70 | 93 | 2.6 | 5.2 | 0.00 | 0.00 | 0.00 | 35 | 1017.9 |
| 20260504180155 | 70 | 100 | 2.6 | 3.5 | 0.00 | 0.00 | 0.00 | 36 | 1017.9 |
| 20260504175652 | 70 | 93 | 4.3 | 5.2 | 0.00 | 0.00 | 0.00 | 36 | 1017.7 |
| 20260504175148 | 69 | 79 | 3.5 | 4.3 | 0.00 | 0.00 | 0.00 | 36 | 1017.8 |
| 20260504174647 | 69 | 339 | 1.7 | 3.5 | 0.00 | 0.00 | 0.00 | 37 | 1017.8 |
| 20260504174143 | 69 | 85 | 1.7 | 3.5 | 0.00 | 0.00 | 0.00 | 37 | 1017.9 |
| 20260504173640 | 68 | 72 | 3.5 | 7.0 | 0.00 | 0.00 | 0.00 | 38 | 1017.6 |
| 20260504173138 | 67 | 88 | 5.2 | 5.2 | 0.00 | 0.00 | 0.00 | 38 | 1017.6 |
| 20260504172634 | 68 | 230 | 3.5 | 5.2 | 0.00 | 0.00 | 0.00 | 38 | 1017.7 |
| 20260504172131 | 68 | 325 | 4.3 | 7.0 | 0.00 | 0.00 | 0.00 | 38 | 1017.5 |
| 20260504171627 | 66 | 329 | 5.2 | 11.3 | 0.00 | 0.00 | 0.00 | 39 | 1017.5 |
| 20260504171125 | 66 | 276 | 1.7 | 9.6 | 0.00 | 0.00 | 0.00 | 40 | 1017.6 |
| 20260504170621 | 66 | 321 | 7.8 | 8.7 | 0.00 | 0.00 | 0.00 | 40 | 1017.5 |
| 20260504170118 | 65 | 330 | 4.3 | 11.3 | 0.00 | 0.00 | 0.00 | 41 | 1017.7 |
| 20260504150958 | 63 | 329 | 6.1 | 17.4 | 0.00 | 0.00 | 0.00 | 43 | 1016.9 |
| 20260504150455 | 62 | 284 | 2.6 | 11.3 | 0.00 | 0.00 | 0.00 | 44 | 1016.8 |